Retour au catalogue

STARLINK-36379

ActifCommunicationsSSO
NORAD 68769·PAYLOAD·🇺🇸 United States

Lancé Apr 19, 2026 depuis Vandenberg Space Force Base

Loading…

Prochains Passages (prochaines 24 heures)

TLE

FraisSource: CelesTrak SupGP

Époque: Sep 14, 2026, 21:09 UTC

1 68769C 26086D   26257.88173611  .00004824  00000+0  14978-3 0  2571
2 68769  97.2847 293.3311 0001171  99.7172 137.8400 15.33429513    12

Suivez STARLINK-36379 en temps réel avec AllMySat

Download on the App Store